W7PLC Weather Reports


time (UTC)temp
C
wind
direction
speed
KPH
gust
KPH
rain 1hr
cm
rain 24hr
cm
rain mn
cm
humidity
%
barometer
mb
20260502140118 10 42 0.0 0.0 0.00 0.00 0.00 97 1015.1
20260502130543 10 52 0.0 0.0 0.00 0.00 0.00 98 1014.9
20260502123526 9 52 0.0 0.0 0.00 0.00 0.00 98 1015.2
20260502123022 9 52 0.0 0.0 0.00 0.00 0.00 98 1015.2
20260502122519 9 52 0.0 0.0 0.00 0.00 0.00 98 1015.2
20260502122017 9 52 0.0 0.0 0.00 0.00 0.00 98 1015.1
20260502121514 9 52 0.0 0.0 0.00 0.00 0.00 98 1015.4
20260502121011 9 52 0.0 0.0 0.00 0.00 0.00 99 1015.3
20260502120507 9 52 0.0 0.0 0.00 0.00 0.00 99 1015.1
20260502115502 9 52 0.0 0.0 0.00 0.00 0.00 99 1015.2
20260502114958 8 52 0.0 0.0 0.00 0.00 0.00 99 1015.2
20260502114455 8 52 0.0 0.0 0.00 0.00 0.00 99 1015.2
20260502113952 8 52 0.0 0.0 0.00 0.00 0.00 99 1015.4
20260502113449 8 52 0.0 0.0 0.00 0.00 0.00 99 1015.3
20260502112948 9 52 0.0 0.0 0.00 0.00 0.00 99 1015.2
20260502112445 9 52 0.0 0.0 0.00 0.00 0.00 98 1015.2
20260502111942 9 52 0.0 0.0 0.00 0.00 0.00 98 1015.1
20260502111439 9 52 0.0 0.0 0.00 0.00 0.00 98 1015.1
20260502110937 9 52 0.0 0.0 0.00 0.00 0.00 98 1015.0
20260502110435 9 52 0.0 0.0 0.00 0.00 0.00 97 1014.7
20260502105931 9 52 0.0 0.0 0.00 0.00 0.00 97 1014.8
20260502105429 9 54 0.0 0.0 0.00 0.00 0.00 97 1014.9
20260502104927 9 359 0.0 0.0 0.00 0.00 0.00 97 1015.2
20260502104424 9 358 0.0 0.0 0.00 0.00 0.00 98 1015.4
20260502103921 9 358 0.0 0.0 0.00 0.00 0.00 98 1015.6
20260502103419 9 358 0.0 0.0 0.00 0.00 0.00 98 1015.9
20260502102915 9 358 0.0 0.0 0.00 0.00 0.00 98 1015.7
20260502102412 9 358 0.0 0.0 0.00 0.00 0.00 98 1015.9
20260502101909 9 359 0.0 0.0 0.00 0.00 0.00 98 1015.8
20260502101408 9 354 0.0 0.0 0.00 0.00 0.00 98 1015.8
20260502100905 9 359 0.0 0.0 0.00 0.00 0.00 98 1015.8
20260502100405 9 359 0.0 0.0 0.00 0.00 0.00 98 1015.7
20260502091338 9 354 0.0 0.0 0.00 0.00 0.00 96 1015.0
20260502090836 9 354 0.0 0.0 0.00 0.00 0.00 95 1015.2
20260502090332 10 354 0.0 0.0 0.00 0.00 0.00 95 1015.2
20260502071227 10 354 0.0 0.0 0.00 0.00 0.00 92 1015.3
20260502070726 10 354 0.0 0.0 0.00 0.00 0.00 92 1015.0
20260502070223 10 354 0.0 0.0 0.00 0.00 0.00 91 1015.0
20260502065721 10 354 0.0 0.0 0.00 0.00 0.00 91 1015.0
20260502065219 11 354 0.0 0.0 0.00 0.00 0.00 91 1015.0
20260502064717 11 354 0.0 0.0 0.00 0.00 0.00 90 1015.1
20260502064215 11 354 0.0 0.0 0.00 0.00 0.00 90 1015.0
20260502063712 11 354 0.0 0.0 0.00 0.00 0.00 89 1014.8
20260502063210 11 354 0.0 0.0 0.00 0.00 0.00 89 1014.8
20260502062706 11 354 0.0 0.0 0.00 0.00 0.00 89 1014.7
20260502062204 11 354 0.0 0.0 0.00 0.00 0.00 88 1014.8
20260502061703 11 354 0.0 0.0 0.00 0.00 0.00 88 1015.0
20260502061159 11 354 0.0 0.0 0.00 0.00 0.00 87 1014.8
20260502060654 11 39 0.0 0.0 0.00 0.00 0.00 88 1015.0
20260502060151 11 40 0.0 0.0 0.00 0.00 0.00 87 1015.1
20260502055649 12 40 0.0 0.0 0.00 0.00 0.00 87 1015.0
20260502055147 12 40 0.0 0.0 0.00 0.00 0.00 87 1014.8
20260502054646 12 40 0.0 0.0 0.00 0.00 0.00 87 1014.8
20260502054142 12 39 0.0 0.0 0.00 0.00 0.00 86 1014.8
20260502053640 12 40 0.0 0.0 0.00 0.00 0.00 86 1015.0
20260502053137 12 40 0.0 0.0 0.00 0.00 0.00 85 1014.9
20260502052635 12 40 0.0 0.0 0.00 0.00 0.00 85 1014.8
20260502052133 12 40 0.0 0.0 0.00 0.00 0.00 84 1015.0
20260502051631 12 40 0.0 0.0 0.00 0.00 0.00 84 1014.8
20260502051129 12 40 0.0 0.0 0.00 0.00 0.00 83 1014.8
20260502050625 13 40 0.0 0.0 0.00 0.00 0.00 82 1015.0
20260502050122 13 41 0.0 0.0 0.00 0.00 0.00 83 1014.8
20260502045618 13 40 0.0 0.0 0.00 0.00 0.00 83 1014.8
20260502045115 13 40 0.0 0.0 0.00 0.00 0.00 82 1014.8
20260502044612 13 343 0.0 0.0 0.00 0.00 0.00 82 1014.7
20260502044109 13 344 0.0 0.0 0.00 0.00 0.00 82 1014.7
20260502043606 13 344 0.0 0.0 0.00 0.00 0.00 82 1014.5
20260502043102 13 343 0.0 0.0 0.00 0.00 0.00 81 1014.5
20260502042557 13 343 1.6 1.6 0.00 0.00 0.00 80 1014.5
20260502042055 14 343 0.0 1.6 0.00 0.00 0.00 80 1014.3
20260502041552 15 348 0.0 0.0 0.00 0.00 0.00 79 1014.2
20260502041049 15 348 0.0 0.0 0.00 0.00 0.00 78 1014.4
20260502040546 15 355 0.0 0.0 0.00 0.00 0.00 77 1014.2
20260502040043 15 357 0.0 0.0 0.00 0.00 0.00 75 1014.1
20260502035538 15 357 0.0 0.0 0.00 0.00 0.00 74 1013.9
20260502035036 15 356 0.0 0.0 0.00 0.00 0.00 74 1013.7
20260502034535 15 356 0.0 0.0 0.00 0.00 0.00 73 1013.8
20260502034032 16 45 0.0 0.0 0.00 0.00 0.00 71 1013.5
20260502033530 16 45 0.0 0.0 0.00 0.00 0.00 71 1013.6
20260502033027 16 46 0.0 0.0 0.00 0.00 0.00 70 1013.4
20260502032523 16 45 0.0 0.0 0.00 0.00 0.00 70 1013.4
20260502032020 16 46 0.0 0.0 0.00 0.00 0.00 69 1013.6
20260502031518 16 18 0.0 0.0 0.00 0.00 0.00 68 1013.4
20260502031016 17 46 0.0 0.0 0.00 0.00 0.00 68 1013.1
20260502030514 17 47 0.0 1.6 0.00 0.00 0.00 67 1013.1
20260502030012 17 25 0.0 0.0 0.00 0.00 0.00 65 1013.1
20260502025509 17 47 0.0 0.0 0.00 0.00 0.00 65 1013.1
20260502025007 17 45 0.0 0.0 0.00 0.00 0.00 65 1013.1
20260502024504 17 47 0.0 0.0 0.00 0.00 0.00 64 1012.9
20260502024003 17 27 0.0 0.0 0.00 0.00 0.00 64 1012.8
20260502023500 17 39 0.0 0.0 0.00 0.00 0.00 63 1012.7
20260502022957 17 46 0.0 0.0 0.00 0.00 0.00 63 1012.6
20260502022453 18 61 0.0 0.0 0.00 0.00 0.00 63 1012.7
20260502021950 18 350 1.6 3.2 0.00 0.00 0.00 63 1012.4
20260502021448 18 36 0.0 0.0 0.00 0.00 0.00 63 1012.4
20260502020944 18 72 1.6 1.6 0.00 0.00 0.00 62 1012.3
20260502020443 18 321 0.0 3.2 0.00 0.00 0.00 63 1012.4
20260502015939 18 42 1.6 1.6 0.00 0.00 0.00 63 1012.4
20260502015437 18 56 1.6 1.6 0.00 0.00 0.00 63 1012.4
20260502014933 19 55 1.6 1.6 0.00 0.00 0.00 62 1012.4
20260502014430 19 37 0.0 1.6 0.00 0.00 0.00 61 1012.6
20260502013927 20 46 0.0 1.6 0.00 0.00 0.00 60 1012.5
20260502013422 21 77 1.6 1.6 0.00 0.00 0.00 58 1012.4
20260502012919 20 47 1.6 1.6 0.00 0.00 0.00 59 1012.5
20260502012417 20 2 1.6 1.6 0.00 0.00 0.00 58 1012.7
20260502011914 20 67 1.6 3.2 0.00 0.00 0.00 58 1012.4
20260502011410 21 42 0.0 0.0 0.00 0.00 0.00 58 1012.7
20260502010908 21 27 0.0 0.0 0.00 0.00 0.00 57 1012.5
20260502010404 21 15 0.0 0.0 0.00 0.00 0.00 57 1012.6
20260502005900 21 42 0.0 1.6 0.00 0.00 0.00 57 1012.5
20260502005358 22 51 1.6 3.2 0.00 0.00 0.00 55 1012.5
20260502004856 23 34 0.0 0.0 0.00 0.00 0.00 53 1012.6
20260502004351 23 21 0.0 0.0 0.00 0.00 0.00 53 1012.7
20260502003849 23 22 1.6 3.2 0.00 0.00 0.00 53 1012.5
20260502003346 24 5 1.6 1.6 0.00 0.00 0.00 51 1012.4
20260502002842 24 283 3.2 3.2 0.00 0.00 0.00 51 1012.7
20260502002340 25 5 0.0 0.0 0.00 0.00 0.00 50 1012.5
20260502001837 26 6 0.0 1.6 0.00 0.00 0.00 48 1012.6
20260502001335 26 29 0.0 1.6 0.00 0.00 0.00 47 1012.2
20260502000832 26 326 1.6 3.2 0.00 0.00 0.00 48 1012.5
20260502000332 26 28 0.0 1.6 0.00 0.00 0.00 47 1012.3
20260501235826 25 43 1.6 1.6 0.00 0.00 0.00 50 1012.2
20260501235322 25 0 1.6 1.6 0.00 0.00 0.00 49 1012.5
20260501234817 25 28 0.0 0.0 0.00 0.00 0.00 51 1012.4
20260501234315 26 8 0.0 0.0 0.00 0.00 0.00 49 1012.4
20260501233813 26 342 0.0 0.0 0.00 0.00 0.00 48 1012.4
20260501233310 25 345 1.6 1.6 0.00 0.00 0.00 48 1012.3
20260501232806 25 358 1.6 1.6 0.00 0.00 0.00 48 1012.3
20260501232305 26 44 0.0 0.0 0.00 0.00 0.00 48 1012.4
20260501231800 26 353 0.0 1.6 0.00 0.00 0.00 47 1012.6
20260501231258 26 2 1.6 1.6 0.00 0.00 0.00 45 1012.1
20260501230756 26 65 1.6 1.6 0.00 0.00 0.00 46 1012.5
20260501230255 26 358 1.6 3.2 0.00 0.00 0.00 47 1012.7
20260501225752 26 39 1.6 3.2 0.00 0.00 0.00 47 1012.4
20260501225250 26 40 0.0 0.0 0.00 0.00 0.00 48 1012.7
20260501224745 26 70 4.8 4.8 0.00 0.00 0.00 48 1012.6
20260501224243 26 28 0.0 1.6 0.00 0.00 0.00 48 1012.5
20260501223739 26 46 0.0 1.6 0.00 0.00 0.00 49 1012.7
20260501223235 26 50 0.0 0.0 0.00 0.00 0.00 48 1012.8
20260501222731 26 45 0.0 0.0 0.00 0.00 0.00 49 1012.8
20260501222229 26 354 0.0 1.6 0.00 0.00 0.00 49 1012.9
20260501221726 26 74 0.0 0.0 0.00 0.00 0.00 48 1012.9
20260501221223 26 32 0.0 1.6 0.00 0.00 0.00 49 1012.8
20260501220721 26 43 1.6 1.6 0.00 0.00 0.00 49 1013.1
20260501220218 26 323 1.6 3.2 0.00 0.00 0.00 48 1013.2
20260501215715 26 36 0.0 0.0 0.00 0.00 0.00 48 1013.0
20260501215210 26 30 0.0 0.0 0.00 0.00 0.00 48 1013.0
20260501214705 26 46 0.0 0.0 0.00 0.00 0.00 48 1013.1
20260501214201 26 324 0.0 1.6 0.00 0.00 0.00 48 1013.2
20260501213658 26 38 1.6 1.6 0.00 0.00 0.00 49 1013.3
20260501213153 25 74 0.0 0.0 0.00 0.00 0.00 50 1013.3
20260501212650 26 57 1.6 1.6 0.00 0.00 0.00 48 1013.4
20260501212147 25 56 0.0 1.6 0.00 0.00 0.00 48 1013.6
20260501211644 25 10 0.0 1.6 0.00 0.00 0.00 49 1013.4
20260501211141 25 302 1.6 3.2 0.00 0.00 0.00 49 1013.7
20260501210638 25 305 1.6 1.6 0.00 0.00 0.00 49 1013.6
20260501210135 25 46 1.6 1.6 0.00 0.00 0.00 49 1013.9
20260501205631 25 329 0.0 1.6 0.00 0.00 0.00 49 1013.7
20260501205129 24 35 1.6 1.6 0.00 0.00 0.00 49 1013.9
20260501204625 23 316 0.0 0.0 0.00 0.00 0.00 51 1013.8
20260501204121 23 326 1.6 3.2 0.00 0.00 0.00 50 1013.9
20260501203618 23 3 0.0 0.0 0.00 0.00 0.00 49 1013.9
20260501203115 23 3 0.0 1.6 0.00 0.00 0.00 48 1013.7
20260501202613 24 4 0.0 0.0 0.00 0.00 0.00 49 1013.9
20260501202109 24 3 0.0 0.0 0.00 0.00 0.00 48 1013.9
20260501201606 25 26 0.0 1.6 0.00 0.00 0.00 47 1014.0
20260501201102 23 38 1.6 3.2 0.00 0.00 0.00 49 1013.9
20260501200600 22 320 1.6 1.6 0.00 0.00 0.00 50 1014.1
20260501200057 23 330 0.0 0.0 0.00 0.00 0.00 49 1013.9
20260501195554 23 10 0.0 1.6 0.00 0.00 0.00 50 1014.2
20260501195050 22 0 0.0 1.6 0.00 0.00 0.00 50 1014.5
20260501194545 22 332 1.6 3.2 0.00 0.00 0.00 49 1014.2
20260501194041 22 24 0.0 0.0 0.00 0.00 0.00 51 1014.4
20260501193539 22 56 0.0 1.6 0.00 0.00 0.00 49 1014.4
20260501193038 22 27 0.0 1.6 0.00 0.00 0.00 51 1014.5
20260501192534 22 49 1.6 1.6 0.00 0.00 0.00 52 1014.3
20260501192032 22 16 1.6 1.6 0.00 0.00 0.00 51 1014.5
20260501191529 20 344 0.0 0.0 0.00 0.00 0.00 56 1014.6
20260501191026 21 359 0.0 1.6 0.00 0.00 0.00 53 1014.8
20260501190521 21 323 1.6 1.6 0.00 0.00 0.00 54 1014.7
20260501190017 21 71 0.0 1.6 0.00 0.00 0.00 55 1015.0
20260501185513 21 72 0.0 1.6 0.00 0.00 0.00 55 1014.7
20260501185009 21 65 1.6 1.6 0.00 0.00 0.00 56 1014.9
20260501184506 21 302 0.0 1.6 0.00 0.00 0.00 56 1015.0
20260501184001 20 0 0.0 0.0 0.00 0.00 0.00 56 1015.0
20260501183458 20 0 1.6 1.6 0.00 0.00 0.00 59 1014.9
20260501182954 20 8 0.0 0.0 0.00 0.00 0.00 56 1015.2
20260501182451 21 38 0.0 0.0 0.00 0.00 0.00 55 1015.2
20260501181947 20 23 0.0 0.0 0.00 0.00 0.00 58 1015.0
20260501181445 19 5 0.0 0.0 0.00 0.00 0.00 63 1015.1
20260501180942 19 41 0.0 1.6 0.00 0.00 0.00 64 1014.9
20260501180439 19 42 1.6 1.6 0.00 0.00 0.00 63 1015.1
20260501175935 18 26 0.0 0.0 0.00 0.00 0.00 64 1015.0
20260501175432 18 22 0.0 0.0 0.00 0.00 0.00 66 1015.0
20260501174929 18 22 0.0 0.0 0.00 0.00 0.00 66 1015.1
20260501174427 18 321 1.6 1.6 0.00 0.00 0.00 66 1015.1
20260501173924 18 39 0.0 0.0 0.00 0.00 0.00 66 1015.0
20260501173421 18 39 0.0 1.6 0.00 0.00 0.00 66 1015.1
20260501172916 18 39 0.0 0.0 0.00 0.00 0.00 66 1015.2
20260501172413 17 342 1.6 1.6 0.00 0.00 0.00 67 1015.3
20260501171908 17 41 0.0 0.0 0.00 0.00 0.00 68 1015.2
20260501171404 17 42 0.0 0.0 0.00 0.00 0.00 68 1015.2
20260501170901 17 43 1.6 1.6 0.00 0.00 0.00 68 1015.4
20260501170358 17 65 0.0 1.6 0.00 0.00 0.00 68 1015.2
20260501165856 17 65 1.6 1.6 0.00 0.00 0.00 70 1015.2
20260501165354 17 340 0.0 1.6 0.00 0.00 0.00 69 1015.2
20260501164851 16 61 0.0 0.0 0.00 0.00 0.00 72 1015.2
20260501164349 16 61 1.6 3.2 0.00 0.00 0.00 76 1015.4
20260501163844 16 61 1.6 1.6 0.00 0.00 0.00 75 1015.4
20260501163341 16 29 0.0 0.0 0.00 0.00 0.00 74 1015.5
20260501162838 16 29 0.0 0.0 0.00 0.00 0.00 74 1015.2
20260501162335 16 27 0.0 0.0 0.00 0.00 0.00 74 1015.5
20260501161831 16 27 0.0 0.0 0.00 0.00 0.00 76 1015.4
20260501161329 15 27 0.0 0.0 0.00 0.00 0.00 78 1015.4
20260501160825 15 27 0.0 0.0 0.00 0.00 0.00 80 1015.6
20260501160322 15 27 0.0 0.0 0.00 0.00 0.00 80 1015.3
20260501155819 15 27 0.0 0.0 0.00 0.00 0.00 82 1015.7
20260501155316 14 27 0.0 0.0 0.00 0.00 0.00 82 1015.6
20260501154813 14 27 0.0 0.0 0.00 0.00 0.00 82 1015.7
20260501154310 14 16 0.0 0.0 0.00 0.00 0.00 81 1015.7
20260501153807 15 33 0.0 0.0 0.00 0.00 0.00 80 1015.4
20260501153305 15 33 0.0 0.0 0.00 0.00 0.00 81 1015.4
20260501152800 14 33 0.0 0.0 0.00 0.00 0.00 82 1015.7
20260501152258 13 32 0.0 0.0 0.00 0.00 0.00 86 1015.8
20260501151755 12 33 0.0 0.0 0.00 0.00 0.00 86 1015.8
20260501151251 12 32 0.0 0.0 0.00 0.00 0.00 89 1015.7
20260501150747 12 32 0.0 0.0 0.00 0.00 0.00 90 1015.4
20260501150244 12 9 0.0 0.0 0.00 0.00 0.00 89 1015.6
20260501145740 12 9 0.0 0.0 0.00 0.00 0.00 90 1015.4
20260501145238 11 8 0.0 0.0 0.00 0.00 0.00 91 1015.8
20260501144734 11 8 0.0 0.0 0.00 0.00 0.00 92 1015.5
20260501144230 11 8 0.0 0.0 0.00 0.00 0.00 93 1015.5
20260501143726 10 8 0.0 0.0 0.00 0.00 0.00 94 1015.6
20260501143224 10 8 0.0 0.0 0.00 0.00 0.00 94 1015.3